Weather in Aleksandrovka

Russia / Orenburg Oblast     52°40′44″N   54°25′03″E
temp.,
°C
wind,
m/s
gust,
m/s
humid.,
%
clouds,
%
prec.,
mm/h
press.,
hPa
HPBL,
m
28 september, tue
tue2823:00+4ene8116297 0.0 1012816
02:00+3ne81066100 0.0 10131095
05:00+3ne7117290 0.0 1014749
08:00+2ne81290100 0.0 1016718
11:00+5ene91162100 0.1 10171191
14:00+8ne81046100 0.0 10181727
17:00+8ne794497 0.0 10191550
20:00+5nne345349 0.0 102042
29 september, wed
wed2923:00+4nne6105915 0.0 1022247
02:00+2nne4975100 0.0 1023211
05:00+1ne51077100 0.0 1024252
08:000nne39835 0.0 1025207
11:00+5ne67525 0.0 1025928
14:00+8ne553925 0.0 10251543
17:00+9ne563474 0.0 10251936
20:00+5ne454530 0.0 102658
30 september, thu
thu3023:00+3ne485921 0.0 1028156
02:00+2ne226861 0.0 102923
05:00+1nne227458 0.0 102911
08:000nne22765 0.0 103026
11:00+6nne34535 0.0 1031640
14:00+8nnw3339100 0.0 10301640
17:00+9nnw34335 0.0 10291739
20:00+5nw33455 0.0 103015
1 october, fri
fri123:00+4nnw22521 0.0 103012
02:00+2wnw22565 0.0 103110
05:00+2w22625 0.0 103111
08:00+2w227058 0.0 103128
11:00+4w4665100 0.0 1031216
14:00+6w5868100 0.0 1030377
17:00+7wnw5867100 0.0 1030450
20:00+6w458196 0.0 103065
2 october, sat
sat223:00+8w4877100 0.0 1030177
02:00+8wnw3581100 0.0 1030115
05:00+8wnw1182100 0.0 103013
08:00+6wnw228698 0.0 103011
11:00+9nw2475100 0.0 1031223
14:00+11nw3471100 0.0 1031521
17:00+12nw2366100 0.1 1031584
20:00+10nnw227294 0.1 103226